[[{"header":{"parameterUnit":"m.s-1","parameterCategory":1,"la1":30.2991,"la2":30.254,"lo1":-89.0895,"lo2":-89.0444,"dy":0.0017,"dx":0.0017,"nx":28,"ny":28,"refTime":"2025-06-08T03:00:00:Z","depth":0,"parameterNumber":2,"parameterNumberName":"U-component_of_WINDS"},"data":[0,0,0,0,0,0,0,0,0,0,0,0,0,0,0,0,0,0,0,0,0,0,0,0,0,0,0,0,0,0,0,0,0,0,0,0,0,0,0,0,0,0,0,0,0,0,0,0,0,0,0,0,0,0,0,0,0,0,4.4538,4.4539,0,4.4631,4.4632,4.4633,4.4529,4.4525,4.4522,4.4518,4.4616,4.4623,4.4629,0,0,0,0,0,0,0,0,0,0,0,0,0,4.4272,4.4277,4.4538,4.4539,4.4541,4.4631,4.4632,4.4634,4.453,4.4525,4.4521,4.4516,4.4614,4.4622,4.4629,0,0,0,0,0,0,0,0,0,0,0,0,0,4.4379,4.4279,4.4538,4.45,4.4497,4.4631,4.4633,4.4634,4.4531,4.4525,4.4519,4.4514,4.4612,4.4621,4.463,4.4807,0,0,4.4659,4.4663,0,0,0,0,0,0,0,0,4.4373,4.4389,4.4504,4.4503,4.45,4.4563,4.4575,4.4692,4.4533,4.4518,4.4518,4.4511,4.4604,4.4613,4.4644,4.4812,4.4816,4.466,4.4666,4.467,4.4673,0,0,0,0,0,0,0,4.4366,4.4384,4.4575,4.4506,4.4504,4.4478,4.4487,4.4596,4.4593,4.4519,4.4512,4.4524,4.4601,4.4635,4.4645,4.4818,4.466,4.4668,4.4674,4.4678,4.5131,4.5137,0,0,0,0,0,0,4.4362,4.4379,4.4572,4.4578,4.442,4.4488,4.4497,4.4549,4.4592,4.4592,4.4529,4.4519,4.4622,4.4635,4.4649,4.4855,4.467,4.4679,4.4684,4.5125,4.5133,4.5139,0,0,0,0,0,0,4.4357,4.438,4.4568,4.4476,4.4498,4.4499,4.4557,4.4554,4.4587,4.4599,4.4598,4.4564,4.4618,4.4635,4.4767,4.4857,4.4683,4.4692,4.5117,4.5127,4.5136,4.5271,0,0,0,0,0,0,4.435,4.4379,4.4446,4.4479,4.4504,4.4686,4.4563,4.456,4.4603,4.4591,4.4632,4.4633,4.4614,4.4754,4.4777,4.4867,4.4699,4.5109,4.5122,4.5133,4.5259,4.5284,4.5306,0,0,0,0,0,4.4341,4.4482,4.445,4.4474,4.4587,4.4691,4.4706,4.4681,4.4611,4.4678,4.4685,4.4631,4.4844,4.4768,4.4793,4.4887,4.5103,4.5118,4.5132,4.5248,4.5279,4.5305,0,0,0,0,0,0,4.4463,4.4486,4.4451,4.4607,4.4648,4.4673,4.4757,4.4715,4.4777,4.4763,4.473,4.4741,4.488,4.4898,4.4813,4.5059,4.4962,4.4982,4.5042,4.5071,4.5095,4.5086,4.4707,0,0,0,0,0,4.4508,4.4589,4.4606,4.4742,4.4764,4.4758,4.4802,4.4779,4.482,4.4837,4.4854,4.4897,4.4973,4.5024,4.5095,4.5261,4.5267,4.5338,4.5362,4.5381,4.5398,4.5483,4.5514,4.5187,4.5186,4.5186,0,0,4.4602,4.4624,4.4678,4.4767,4.4796,4.488,4.4773,4.4868,4.493,4.4852,4.4976,4.4991,4.5036,4.5185,4.5252,4.5204,4.549,4.54,4.5415,4.5421,4.5501,4.5532,4.556,4.5196,4.5194,4.5193,0,0,4.4815,4.4842,4.4956,4.4987,4.5031,4.5025,4.5053,4.5085,4.509,4.5214,4.5156,4.523,4.5363,4.5396,4.543,4.5654,4.5606,4.5679,4.5801,4.5885,4.591,4.5933,4.6009,4.6037,4.5696,4.5696,4.5697,0,4.4926,4.5051,4.5021,4.5119,4.5158,4.509,4.5204,4.5236,4.5302,4.5331,4.5276,4.5438,4.5465,4.5618,4.5672,4.5704,4.5733,4.5672,4.5909,4.5932,4.5952,4.6024,4.6053,4.5705,4.5704,4.5703,4.5702,0,4.5183,4.5271,4.5358,4.542,4.547,4.5577,4.5562,4.5617,4.5589,4.5589,4.5715,4.5744,4.5817,4.5853,4.5829,4.6003,4.5971,4.5914,4.5815,4.5992,4.6059,4.6087,4.5716,4.5713,4.5711,4.5709,0,0,4.5476,4.5518,4.555,4.5576,4.5619,4.5686,4.5789,4.5859,4.5904,4.5952,4.6036,4.6148,4.6094,4.6133,4.6112,4.6186,4.6356,4.6119,4.6119,4.6159,4.6546,4.6586,4.6618,4.6325,4.6331,4.6335,4.654,0,4.5686,4.5862,4.5837,4.6006,4.6085,4.602,4.6109,4.6145,4.6147,4.6215,4.6218,4.6296,4.6222,4.6244,4.6315,4.6321,4.6433,4.6306,4.6401,4.6405,4.6388,4.6654,4.6697,4.689,4.6567,4.6571,4.6575,0,4.5956,4.601,4.6186,4.6213,4.6245,4.6325,4.6385,4.6452,4.649,4.6487,4.6529,4.6494,4.6595,4.6497,4.6635,4.6549,4.6587,4.6596,4.6603,4.6608,4.6498,4.6663,4.6951,4.6978,4.6616,4.6613,4.661,0,4.6146,4.6264,4.6383,4.6408,4.6444,4.6501,4.6519,4.6551,4.6594,4.6647,4.6674,4.674,4.6775,4.6827,4.6809,4.6741,4.695,4.6852,4.6948,4.6948,4.6993,4.6989,4.7287,4.7024,4.7023,4.7023,4.7022,0,4.6381,4.6491,4.6468,4.6541,4.6661,4.6632,4.6752,4.6762,4.6791,4.6864,4.6814,4.6884,4.6859,4.6927,4.6915,4.7029,4.7047,4.7045,4.704,4.7048,4.7047,4.7069,4.7054,4.703,4.7029,4.7027,4.7026,0,4.6613,4.6603,4.6728,4.6751,4.6759,4.6846,4.6865,4.6933,4.6932,4.7025,4.7045,4.7043,4.712,4.7109,4.7197,4.7188,4.7328,4.7309,4.7315,4.7309,4.7404,4.7394,4.7724,4.7764,4.7478,4.7481,4.7483,0,4.6762,4.6844,4.6875,4.6919,4.694,4.7014,4.7056,4.7031,4.7077,4.7125,4.7187,4.726,4.7316,4.7444,4.745,4.7515,4.7494,4.7606,4.7504,4.7508,4.7491,4.7485,4.7491,4.7625,4.7628,4.7631,4.7633,0,4.7027,4.7017,4.7079,4.7139,4.719,4.7237,4.7279,4.7319,4.7297,4.7351,4.7429,4.7472,4.756,4.7632,4.7693,4.7711,4.7668,4.7665,4.769,4.7697,4.7695,4.7693,4.7365,4.7657,4.7654,4.7653,4.7651,4.765,4.7219,4.7287,4.7318,4.7388,4.7416,4.7456,4.752,4.7525,4.7589,4.7656,4.7638,4.7725,4.7759,4.7836,4.7861,4.7929,4.7887,4.7925,4.7934,4.7942,4.7951,4.7687,4.794,4.794,4.7939,4.7938,4.7938,0,4.7476,4.7493,4.7558,4.7616,4.7671,4.7626,4.7669,4.7717,4.7794,4.7829,4.7885,4.7973,4.8042,4.8053,4.8118,4.817,4.8151,4.8187,4.8181,4.8185,4.7987,4.7956,4.8201,4.82,4.82,4.82,4.82,4.82,4.7617,4.7728,4.7722,4.7847,4.7862,4.7946,4.7974,4.8009,4.8036,4.8136,4.8192,4.8199,4.8223,4.8289,4.835,4.8351,4.8376,4.8419,4.8413,4.8226,4.82,4.8175,4.8146,4.8426,4.8426,4.8605,4.8606,4.8608]},{"header":{"parameterUnit":"m.s-1","parameterCategory":1,"la1":30.2991,"la2":30.254,"lo1":-89.0895,"lo2":-89.0444,"dy":0.0017,"dx":0.0017,"nx":28,"ny":28,"refTime":"2025-06-08T03:00:00:Z","depth":0,"parameterNumber":3,"parameterNumberName":"V-component_of_WINDS"},"data":[0,0,0,0,0,0,0,0,0,0,0,0,0,0,0,0,0,0,0,0,0,0,0,0,0,0,0,0,0,0,0,0,0,0,0,0,0,0,0,0,0,0,0,0,0,0,0,0,0,0,0,0,0,0,0,0,0,0,2.3134,2.3135,0,2.3215,2.3216,2.3217,2.3199,2.3198,2.3196,2.3195,2.3279,2.3283,2.3287,0,0,0,0,0,0,0,0,0,0,0,0,0,2.2965,2.2968,2.3134,2.3135,2.3136,2.3215,2.3216,2.3217,2.32,2.3198,2.3196,2.3194,2.3278,2.3283,2.3287,0,0,0,0,0,0,0,0,0,0,0,0,0,2.3042,2.2969,2.3134,2.3137,2.3138,2.3214,2.3216,2.3217,2.32,2.3198,2.3196,2.3193,2.3277,2.3282,2.3288,2.3367,0,0,2.3304,2.3307,0,0,0,0,0,0,0,0,2.3037,2.3048,2.3135,2.3137,2.3138,2.3195,2.3187,2.3267,2.3201,2.3177,2.3195,2.3192,2.3253,2.326,2.3281,2.337,2.3374,2.3305,2.3308,2.331,2.3312,0,0,0,0,0,0,0,2.3032,2.3044,2.3166,2.3137,2.3138,2.3134,2.3143,2.3202,2.3227,2.3179,2.3177,2.3187,2.3254,2.3275,2.3282,2.3375,2.3305,2.3309,2.3313,2.3315,2.3532,2.3535,0,0,0,0,0,0,2.3025,2.304,2.3163,2.3168,2.3081,2.3139,2.3149,2.3179,2.3226,2.3231,2.3189,2.3186,2.3267,2.3276,2.3285,2.338,2.331,2.3316,2.3319,2.353,2.3533,2.3535,0,0,0,0,0,0,2.3022,2.3037,2.316,2.3104,2.3119,2.3144,2.3179,2.3182,2.3204,2.3234,2.3238,2.3207,2.3266,2.3278,2.3346,2.3383,2.3318,2.3323,2.3527,2.3531,2.3534,2.3571,0,0,0,0,0,0,2.3017,2.3035,2.3066,2.3105,2.3122,2.322,2.3181,2.3185,2.3213,2.321,2.3252,2.3257,2.3265,2.3338,2.3351,2.3389,2.3327,2.3524,2.3529,2.3533,2.3566,2.3575,2.3583,0,0,0,0,0,2.3011,2.3074,2.3067,2.3082,2.3161,2.3222,2.3232,2.324,2.3216,2.3247,2.3266,2.3255,2.3376,2.3345,2.336,2.34,2.3521,2.3527,2.3533,2.3563,2.3573,2.3583,0,0,0,0,0,0,2.304,2.3079,2.3072,2.3149,2.3182,2.3219,2.3258,2.3251,2.3292,2.3288,2.3296,2.3305,2.3375,2.3394,2.3359,2.3478,2.3445,2.3454,2.3463,2.3474,2.3482,2.3476,2.3332,0,0,0,0,0,2.3055,2.31,2.3132,2.3197,2.3214,2.3233,2.326,2.3263,2.3297,2.3311,2.3336,2.337,2.3415,2.3446,2.3489,2.3568,2.3577,2.3603,2.3611,2.3618,2.3626,2.3668,2.368,2.3554,2.3554,2.3554,0,0,2.3087,2.3114,2.3142,2.3204,2.3229,2.3277,2.3245,2.3297,2.3332,2.332,2.3385,2.3404,2.3443,2.3516,2.355,2.3535,2.3662,2.3625,2.363,2.3635,2.3675,2.3687,2.3698,2.3558,2.3557,2.3556,0,0,2.3169,2.3194,2.3251,2.3276,2.3315,2.3327,2.3341,2.3378,2.3389,2.3455,2.3446,2.3488,2.3567,2.3594,2.3619,2.3709,2.3701,2.3723,2.3766,2.3807,2.3817,2.3826,2.3858,2.3869,2.373,2.3731,2.3731,0,2.3204,2.3275,2.328,2.3333,2.3359,2.3349,2.3405,2.3431,2.3482,2.3501,2.3482,2.358,2.3605,2.3685,2.3706,2.3726,2.3742,2.3719,2.3815,2.3824,2.3833,2.3863,2.3875,2.3733,2.3733,2.3732,2.3732,0,2.3316,2.3365,2.3405,2.3454,2.3485,2.354,2.3553,2.3584,2.3584,2.3597,2.3664,2.3693,2.3742,2.3761,2.3762,2.384,2.3829,2.3813,2.3781,2.3847,2.3876,2.3887,2.3736,2.3736,2.3735,2.3734,0,0,2.3421,2.347,2.3485,2.3506,2.3547,2.3585,2.3638,2.3685,2.3711,2.3746,2.3791,2.3856,2.3841,2.3869,2.3872,2.3908,2.3976,2.3887,2.3888,2.3902,2.4064,2.4076,2.409,2.3971,2.3973,2.3975,2.4061,0,2.3506,2.36,2.3605,2.369,2.3734,2.3724,2.377,2.38,2.3814,2.3854,2.3869,2.3915,2.3892,2.3908,2.3943,2.3961,2.4009,2.3955,2.4012,2.4014,2.4003,2.4105,2.4118,2.4198,2.4072,2.4074,2.4075,0,2.362,2.3657,2.3746,2.3779,2.3798,2.3839,2.3882,2.392,2.3953,2.3961,2.399,2.3988,2.4042,2.4007,2.4081,2.4044,2.4067,2.4079,2.4083,2.4089,2.4049,2.4114,2.4224,2.4236,2.4093,2.4092,2.409,0,2.3687,2.3759,2.3821,2.384,2.388,2.3909,2.3927,2.3958,2.3986,2.4023,2.404,2.4083,2.4107,2.4141,2.415,2.4123,2.4224,2.4189,2.4231,2.4231,2.4254,2.4252,2.4369,2.4268,2.4268,2.4268,2.4268,0,2.3782,2.3837,2.3852,2.389,2.395,2.3956,2.4015,2.4032,2.4059,2.41,2.4093,2.4132,2.4142,2.4182,2.419,2.4249,2.426,2.4268,2.4269,2.4268,2.4268,2.4285,2.4279,2.4271,2.427,2.427,2.4269,0,2.3868,2.388,2.3947,2.3978,2.3988,2.4031,2.4058,2.4095,2.4106,2.4158,2.4171,2.419,2.4237,2.4249,2.4305,2.431,2.4381,2.4377,2.4369,2.4369,2.441,2.4406,2.4543,2.4561,2.4448,2.4449,2.445,0,2.3929,2.397,2.4006,2.4032,2.4051,2.4094,2.4122,2.4128,2.4156,2.4196,2.4228,2.4274,2.4311,2.4386,2.4405,2.4448,2.4445,2.449,2.4452,2.4449,2.4446,2.4443,2.4447,2.4498,2.4499,2.45,2.45,0,2.4035,2.4038,2.4077,2.4118,2.415,2.4183,2.4214,2.4237,2.4247,2.4279,2.4327,2.4355,2.4412,2.4458,2.45,2.4519,2.4512,2.4512,2.4524,2.4524,2.4518,2.4521,2.4389,2.4509,2.4508,2.4508,2.4507,2.4507,2.4109,2.4145,2.4175,2.4219,2.4243,2.4272,2.4307,2.4322,2.4362,2.4408,2.4409,2.446,2.4491,2.4548,2.4568,2.4609,2.4595,2.4612,2.4617,2.4621,2.4625,2.4511,2.4616,2.4616,2.4616,2.4616,2.4616,0,2.4215,2.4233,2.4273,2.4316,2.435,2.4339,2.4372,2.4402,2.4447,2.4476,2.4512,2.4565,2.4609,2.463,2.4673,2.4701,2.4699,2.4712,2.4711,2.4715,2.4634,2.462,2.4714,2.4714,2.4714,2.4714,2.4713,2.4713,2.4274,2.4333,2.434,2.4411,2.4429,2.4478,2.4498,2.4525,2.4548,2.4608,2.4643,2.4657,2.4683,2.4727,2.4766,2.4771,2.4788,2.4803,2.4806,2.4731,2.4721,2.4711,2.4697,2.4806,2.4806,2.4883,2.4884,2.4885]}]]